TimeEDT,TemperatureF,Dew PointF,Humidity,Sea Level PressureIn,VisibilityMPH,Wind Direction,Wind SpeedMPH,Gust SpeedMPH,PrecipitationIn,Events,Conditions,WindDirDegrees,DateUTC
12:54 AM,37.9,36.0,93,29.79,-9999.0,North,-9999.0,-,N/A,,Unknown,0,2013-03-13 04:54:00
1:54 AM,37.0,36.0,96,29.79,-9999.0,North,-9999.0,-,0.01,,Unknown,0,2013-03-13 05:54:00
2:54 AM,36.0,34.0,93,29.78,-9999.0,North,-9999.0,-,N/A,,Unknown,0,2013-03-13 06:54:00
3:54 AM,35.1,34.0,96,29.79,-9999.0,North,-9999.0,-,N/A,,Unknown,0,2013-03-13 07:54:00
4:54 AM,35.1,34.0,96,29.79,-9999.0,North,-9999.0,-,N/A,,Unknown,0,2013-03-13 08:54:00
5:54 AM,34.0,34.0,100,29.80,-9999.0,North,-9999.0,-,N/A,,Unknown,0,2013-03-13 09:54:00
6:54 AM,34.0,34.0,100,29.80,-9999.0,North,-9999.0,-,N/A,,Unknown,0,2013-03-13 10:54:00
7:54 AM,34.0,34.0,100,29.80,-9999.0,North,-9999.0,-,N/A,,Unknown,0,2013-03-13 11:54:00
8:54 AM,35.1,34.0,96,29.78,-9999.0,North,-9999.0,-,N/A,,Unknown,0,2013-03-13 12:54:00
9:54 AM,37.0,33.1,86,29.77,-9999.0,North,-9999.0,-,N/A,,Unknown,0,2013-03-13 13:54:00
10:54 AM,39.0,30.0,70,29.76,-9999.0,North,-9999.0,-,N/A,,Unknown,0,2013-03-13 14:54:00
11:54 AM,39.0,28.9,67,29.75,-9999.0,North,-9999.0,-,N/A,,Unknown,0,2013-03-13 15:54:00
12:54 PM,39.0,28.0,65,29.75,-9999.0,North,-9999.0,-,N/A,,Unknown,0,2013-03-13 16:54:00
1:54 PM,39.9,26.1,58,29.74,-9999.0,North,-9999.0,-,N/A,,Unknown,0,2013-03-13 17:54:00
2:54 PM,39.9,26.1,58,29.72,-9999.0,North,-9999.0,-,N/A,,Unknown,0,2013-03-13 18:54:00
3:54 PM,39.9,24.1,53,29.72,-9999.0,North,-9999.0,-,N/A,,Unknown,0,2013-03-13 19:54:00
4:54 PM,39.9,24.1,53,29.72,-9999.0,North,-9999.0,-,N/A,,Unknown,0,2013-03-13 20:54:00
5:54 PM,39.0,24.1,55,29.72,-9999.0,North,-9999.0,-,N/A,,Unknown,0,2013-03-13 21:54:00
6:54 PM,37.0,26.1,65,29.74,-9999.0,North,-9999.0,-,N/A,,Unknown,0,2013-03-13 22:54:00
7:54 PM,35.1,28.0,76,29.75,-9999.0,North,-9999.0,-,N/A,,Unknown,0,2013-03-13 23:54:00
8:54 PM,33.1,28.0,82,29.76,-9999.0,North,-9999.0,-,N/A,,Unknown,0,2013-03-14 00:54:00
9:54 PM,30.0,27.0,88,29.76,-9999.0,North,-9999.0,-,N/A,,Unknown,0,2013-03-14 01:54:00
10:54 PM,28.9,27.0,92,29.76,-9999.0,North,-9999.0,-,N/A,,Unknown,0,2013-03-14 02:54:00
11:54 PM,28.0,26.1,92,29.75,-9999.0,North,-9999.0,-,N/A,,Unknown,0,2013-03-14 03:54:00